| time (UTC) | temp C | wind direction | speed KPH | gust KPH | rain 1hr cm | rain 24hr cm | rain mn cm | humidity % | barometer mb |
| 20260510204537 | -17 | 0.0 | 0.0 | 0.00 | 0.00 | 0.00 | 1033.9 | ||
| 20260510203031 | -17 | 0.0 | 0.0 | 0.00 | 0.00 | 0.00 | 1033.6 | ||
| 20260510201524 | -17 | 0.0 | 0.0 | 0.00 | 0.00 | 0.00 | 1033.6 | ||
| 20260510200016 | -17 | 0.0 | 0.0 | 0.00 | 0.00 | 0.00 | 1033.4 | ||
| 20260510194519 | -17 | 0.0 | 0.0 | 0.00 | 0.00 | 0.00 | 1033.2 | ||
| 20260510193011 | -17 | 0.0 | 0.0 | 0.00 | 0.00 | 0.00 | 1033.1 | ||
| 20260510191503 | -17 | 0.0 | 0.0 | 0.00 | 0.00 | 0.00 | 1033.0 | ||
| 20260510190044 | -17 | 0.0 | 0.0 | 0.00 | 0.00 | 0.00 | 1032.9 | ||
| 20260510184525 | -17 | 0.0 | 0.0 | 0.00 | 0.00 | 0.00 | 1032.8 | ||
| 20260510183017 | -17 | 0.0 | 0.0 | 0.00 | 0.00 | 0.00 | 1032.7 | ||
| 20260510181512 | -17 | 0.0 | 0.0 | 0.00 | 0.00 | 0.00 | 1032.5 | ||
| 20260510180009 | -17 | 0.0 | 0.0 | 0.00 | 0.00 | 0.00 | 1032.3 | ||
| 20260510174508 | -17 | 0.0 | 0.0 | 0.00 | 0.00 | 0.00 | 1032.3 | ||
| 20260510173004 | -17 | 0.0 | 0.0 | 0.00 | 0.00 | 0.00 | 1032.4 | ||
| 20260510171612 | -17 | 0.0 | 0.0 | 0.00 | 0.00 | 0.00 | 1032.4 | ||
| 20260510170058 | -17 | 0.0 | 0.0 | 0.00 | 0.00 | 0.00 | 1032.4 | ||
| 20260510164608 | 3 | 116 | 0.0 | 0.0 | 0.00 | 0.00 | 0.00 | 84 | 1032.4 |
| 20260510163127 | 3 | 116 | 0.0 | 0.0 | 0.00 | 0.00 | 0.00 | 84 | 1032.5 |
| 20260510161550 | 3 | 115 | 0.0 | 0.0 | 0.00 | 0.00 | 0.00 | 84 | 1032.5 |
| 20260510160050 | 3 | 116 | 0.0 | 0.0 | 0.00 | 0.00 | 0.00 | 84 | 1032.5 |
| 20260510154548 | 3 | 116 | 0.0 | 0.0 | 0.00 | 0.00 | 0.00 | 84 | 1032.5 |
| 20260510153057 | 3 | 116 | 0.0 | 0.0 | 0.00 | 0.00 | 0.00 | 84 | 1032.5 |
| 20260510151541 | 4 | 116 | 0.0 | 0.0 | 0.00 | 0.00 | 0.00 | 84 | 1032.4 |
| 20260510150042 | 4 | 116 | 0.0 | 0.0 | 0.00 | 0.00 | 0.00 | 84 | 1032.4 |
| 20260510144544 | 4 | 116 | 0.0 | 0.0 | 0.00 | 0.00 | 0.00 | 84 | 1032.5 |
| 20260510143008 | 5 | 116 | 0.0 | 0.0 | 0.00 | 0.00 | 0.00 | 84 | 1032.6 |
| 20260510141504 | 5 | 116 | 0.0 | 0.0 | 0.00 | 0.00 | 0.00 | 84 | 1032.6 |
| 20260510140058 | 5 | 114 | 0.0 | 0.0 | 0.00 | 0.00 | 0.00 | 84 | 1032.6 |
| 20260510134557 | 6 | 114 | 0.0 | 0.0 | 0.00 | 0.00 | 0.00 | 83 | 1032.6 |
| 20260510133051 | 6 | 114 | 0.0 | 0.0 | 0.00 | 0.00 | 0.00 | 83 | 1032.7 |
| 20260510131554 | 6 | 114 | 0.0 | 0.0 | 0.00 | 0.00 | 0.00 | 83 | 1032.7 |
| 20260510130046 | 7 | 116 | 0.0 | 1.6 | 0.00 | 0.00 | 0.00 | 83 | 1032.6 |
| 20260510124545 | 7 | 114 | 0.0 | 0.0 | 0.00 | 0.00 | 0.00 | 83 | 1032.6 |
| 20260510123038 | 7 | 114 | 0.0 | 1.6 | 0.00 | 0.00 | 0.00 | 83 | 1032.7 |
| 20260510121537 | 8 | 114 | 0.0 | 3.2 | 0.00 | 0.00 | 0.00 | 82 | 1032.7 |
| 20260510120035 | 7 | 128 | 0.0 | 1.6 | 0.00 | 0.00 | 0.00 | 83 | 1032.7 |
| 20260510114530 | 8 | 128 | 0.0 | 0.0 | 0.00 | 0.00 | 0.00 | 83 | 1032.7 |
| 20260510113027 | 8 | 167 | 0.0 | 1.6 | 0.00 | 0.00 | 0.00 | 83 | 1032.5 |
| 20260510111527 | 8 | 133 | 0.0 | 1.6 | 0.00 | 0.00 | 0.00 | 83 | 1032.4 |
| 20260510110122 | 8 | 135 | 0.0 | 1.6 | 0.00 | 0.00 | 0.00 | 83 | 1032.3 |
| 20260510104553 | 9 | 130 | 0.0 | 3.2 | 0.00 | 0.00 | 0.00 | 83 | 1032.3 |
| 20260510103048 | 9 | 140 | 0.0 | 3.2 | 0.00 | 0.00 | 0.00 | 83 | 1032.3 |
| 20260510101546 | 10 | 135 | 0.0 | 3.2 | 0.00 | 0.00 | 0.00 | 83 | 1032.3 |
| 20260510094552 | 10 | 145 | 0.0 | 1.6 | 0.00 | 0.00 | 0.00 | 84 | 1032.2 |
| 20260510093039 | 11 | 145 | 0.0 | 1.6 | 0.00 | 0.00 | 0.00 | 84 | 1032.1 |
| 20260510091533 | 11 | 143 | 0.0 | 1.6 | 0.00 | 0.00 | 0.00 | 85 | 1032.0 |
| 20260510090041 | 12 | 143 | 0.0 | 1.6 | 0.00 | 0.00 | 0.00 | 85 | 1031.9 |
| 20260510084532 | 12 | 143 | 0.0 | 0.0 | 0.00 | 0.00 | 0.00 | 85 | 1031.7 |
| 20260510083033 | 12 | 143 | 0.0 | 0.0 | 0.00 | 0.00 | 0.00 | 85 | 1031.6 |
| 20260510081503 | 12 | 143 | 0.0 | 0.0 | 0.00 | 0.00 | 0.00 | 85 | 1031.5 |
| 20260510080108 | 12 | 143 | 0.0 | 1.6 | 0.00 | 0.00 | 0.00 | 85 | 1031.3 |
| 20260510074557 | 12 | 143 | 0.0 | 0.0 | 0.00 | 0.00 | 0.00 | 85 | 1031.2 |
| 20260510073104 | 13 | 143 | 0.0 | 0.0 | 0.00 | 0.00 | 0.00 | 84 | 1031.1 |
| 20260510071556 | 13 | 143 | 0.0 | 0.0 | 0.00 | 0.00 | 0.00 | 84 | 1031.0 |
| 20260510070057 | 13 | 144 | 0.0 | 3.2 | 0.00 | 0.00 | 0.00 | 82 | 1030.8 |
| 20260510064554 | 13 | 166 | 1.6 | 4.8 | 0.00 | 0.00 | 0.00 | 81 | 1030.7 |
| 20260510063052 | 14 | 188 | 0.0 | 4.8 | 0.00 | 0.00 | 0.00 | 80 | 1030.7 |
| 20260510061555 | 14 | 135 | 0.0 | 6.4 | 0.00 | 0.00 | 0.00 | 79 | 1030.5 |
| 20260510060053 | 15 | 147 | 0.0 | 4.8 | 0.00 | 0.00 | 0.00 | 79 | 1030.5 |
| 20260510054650 | 15 | 118 | 0.0 | 9.7 | 0.00 | 0.00 | 0.00 | 78 | 1030.5 |
| 20260510053046 | 15 | 137 | 0.0 | 4.8 | 0.00 | 0.00 | 0.00 | 76 | 1030.4 |
| 20260510051548 | 15 | 83 | 0.0 | 3.2 | 0.00 | 0.00 | 0.00 | 79 | 1030.2 |
| 20260510050044 | 16 | 337 | 0.0 | 1.6 | 0.00 | 0.00 | 0.00 | 77 | 1030.2 |
| 20260510044543 | 16 | 338 | 0.0 | 4.8 | 0.00 | 0.00 | 0.00 | 72 | 1030.1 |
| 20260510043141 | 16 | 313 | 1.6 | 4.8 | 0.00 | 0.00 | 0.00 | 72 | 1030.3 |
| 20260510041537 | 16 | 351 | 0.0 | 6.4 | 0.00 | 0.00 | 0.00 | 72 | 1030.3 |
| 20260510040035 | 16 | 342 | 0.0 | 4.8 | 0.00 | 0.00 | 0.00 | 73 | 1030.5 |
| 20260510034502 | 15 | 335 | 0.0 | 4.8 | 0.00 | 0.00 | 0.00 | 77 | 1030.5 |
| 20260510033002 | 14 | 44 | 0.0 | 1.6 | 0.00 | 0.00 | 0.00 | 79 | 1030.5 |
| 20260510031622 | 15 | 45 | 0.0 | 3.2 | 0.00 | 0.00 | 0.00 | 76 | 1030.6 |
| 20260510024556 | 15 | 334 | 0.0 | 6.4 | 0.00 | 0.00 | 0.00 | 76 | 1030.9 |
| 20260510023054 | 15 | 355 | 1.6 | 8.0 | 0.00 | 0.00 | 0.00 | 73 | 1031.2 |
| 20260510021523 | 15 | 339 | 0.0 | 3.2 | 0.00 | 0.00 | 0.00 | 77 | 1031.4 |
| 20260510020022 | 15 | 339 | 1.6 | 3.2 | 0.00 | 0.00 | 0.00 | 76 | 1031.6 |
| 20260510014517 | 14 | 26 | 0.0 | 1.6 | 0.00 | 0.00 | 0.00 | 76 | 1031.8 |
| 20260510013017 | 15 | 30 | 0.0 | 1.6 | 0.00 | 0.00 | 0.00 | 75 | 1032.0 |
| 20260510011533 | 15 | 20 | 0.0 | 1.6 | 0.00 | 0.00 | 0.00 | 75 | 1032.1 |
| 20260510010013 | 14 | 351 | 0.0 | 0.0 | 0.00 | 0.00 | 0.00 | 79 | 1032.1 |
| 20260510004509 | 13 | 9 | 0.0 | 0.0 | 0.00 | 0.00 | 0.00 | 81 | 1032.1 |
| 20260510003004 | 13 | 352 | 0.0 | 1.6 | 0.00 | 0.00 | 0.00 | 84 | 1032.1 |
| 20260510001502 | 12 | 355 | 0.0 | 1.6 | 0.00 | 0.00 | 0.00 | 85 | 1032.1 |
| 20260510000107 | 12 | 41 | 0.0 | 1.6 | 0.00 | 0.00 | 0.00 | 82 | 1032.1 |
| 20260509234544 | 12 | 41 | 0.0 | 1.6 | 0.00 | 0.00 | 0.00 | 82 | 1032.1 |
| 20260509233027 | 12 | 159 | 0.0 | 0.0 | 0.00 | 0.00 | 0.00 | 80 | 1032.0 |
| 20260509231552 | 11 | 159 | 0.0 | 1.6 | 0.00 | 0.00 | 0.00 | 81 | 1032.0 |
| 20260509230051 | 11 | 170 | 0.0 | 1.6 | 0.00 | 0.00 | 0.00 | 80 | 1032.0 |
| 20260509224520 | 11 | 177 | 0.0 | 0.0 | 0.00 | 0.00 | 0.00 | 80 | 1031.9 |
| 20260509223018 | 11 | 177 | 0.0 | 0.0 | 0.00 | 0.00 | 0.00 | 80 | 1031.8 |
| 20260509221548 | 11 | 177 | 0.0 | 0.0 | 0.00 | 0.00 | 0.00 | 81 | 1031.6 |
| 20260509220044 | 11 | 119 | 0.0 | 0.0 | 0.00 | 0.00 | 0.00 | 81 | 1031.4 |
| 20260509214537 | -17 | 0.0 | 0.0 | 0.00 | 0.00 | 0.00 | 1031.2 | ||
| 20260509213038 | -17 | 0.0 | 0.0 | 0.00 | 0.00 | 0.00 | 1031.0 | ||
| 20260509211527 | -17 | 0.0 | 0.0 | 0.00 | 0.00 | 0.00 | 1030.7 | ||
| 20260509210031 | -17 | 0.0 | 0.0 | 0.00 | 0.00 | 0.00 | 1030.6 |